Binghamton, NY

1:00 AM EST on November 19, 2019 (GMT -0500)
Binghamton Regional-Link

Weather History for KBGM - September, 2019

Change the Weather History Date:

Saturday, September 7, 2019

  Actual Average Record
Temperature  
Mean Temperature 58 °F 63 °F  
Max Temperature 66 °F 72 °F 90 °F (2007)
Min Temperature 50 °F 54 °F 35 °F (1984)
Degree Days  
Heating Degree Days 7 4  
Month to date heating degree days 27 23  
Since 1 July heating degree days 64 86  
Cooling Degree Days 0 2  
Month to date cooling degree days 0 14  
Year to date cooling degree days 362 362  
Growing Degree Days 8 (Base 50)    
Moisture  
Dew Point 51 °F    
Average Humidity 77    
Maximum Humidity 93    
Minimum Humidity 60    
Precipitation  
Precipitation 0.01 in 0.11 in 7.49 in (2011)
Month to date precipitation 1.35 0.80  
Year to date precipitation 30.14 27.01  
Snow  
Snow 0.00 in 0.00 in 0.00 in (2002)
Month to date snowfall 0.0 0.0  
Since 1 July snowfall 0.0 0.0  
Since 1 September snowfall 0.0 0.0  
Snow Depth 0.00 in    
Sea Level Pressure  
Sea Level Pressure 29.87 in    
Wind  
Wind Speed 7 mph (NW)    
Max Wind Speed 20 mph    
Max Gust Speed 24 mph    
Visibility 10 miles    
Events Rain    
T = Trace of Precipitation, MM = Missing Value Source: NWS Daily Summary

Daily Weather History Graph

Daily Weather History Graph

Search for Another Location

Airport or City:

Astronomy

Sep. 07, 2019 Rise Set
Actual Time 6:35 AM EDT 7:27 PM EDT
Civil Twilight 6:06 AM EDT 7:56 PM EDT
Nautical Twilight 5:32 AM EDT 8:30 PM EDT
Astronomical Twilight 4:57 AM EDT 9:05 PM EDT
Moon 3:46 PM EDT (9/7) 12:20 AM EDT (9/7)
Length of Visible Light 13h 49m
Length of Day
12h 52m
Waxing Gibbous, 65% of the Moon is Illuminated
Sep 7
Waxing Gibbous
Sep 14
Full
Sep 21
Last Quarter
Sep 28
New
Oct 5
First Quarter

Hourly Weather History & Observations

Time (EDT) Temp. Dew Point Humidity Pressure Visibility Wind Dir Wind Speed Gust Speed Precip Events Conditions
1:53 AM 54.0 °F 48.0 °F 80% 29.82 in 10.0 mi ENE 3.5 mph - N/A   Scattered Clouds
2:53 AM 54.0 °F 48.9 °F 83% 29.82 in 10.0 mi NNW 5.8 mph - N/A   Overcast
3:53 AM 54.0 °F 50.0 °F 86% 29.82 in 10.0 mi North 5.8 mph - N/A   Overcast
4:53 AM 54.0 °F 48.9 °F 83% 29.82 in 10.0 mi NNE 5.8 mph - 0.00 in   Overcast
5:53 AM 53.1 °F 48.0 °F 83% 29.84 in 10.0 mi Calm Calm - N/A   Mostly Cloudy
6:53 AM 51.1 °F 48.9 °F 92% 29.85 in 10.0 mi West 4.6 mph - N/A   Partly Cloudy
7:31 AM 52.0 °F 50.0 °F 93% 29.87 in 10.0 mi West 4.6 mph - N/A   Mostly Cloudy
7:37 AM 52.0 °F 50.0 °F 93% 29.87 in 10.0 mi West 4.6 mph - N/A   Overcast
7:53 AM 54.0 °F 51.1 °F 90% 29.86 in 10.0 mi WNW 5.8 mph - N/A   Overcast
8:17 AM 54.0 °F 52.0 °F 93% 29.87 in 10.0 mi WNW 5.8 mph - N/A   Overcast
8:53 AM 55.9 °F 53.1 °F 90% 29.87 in 10.0 mi WNW 6.9 mph - N/A   Overcast
9:53 AM 57.9 °F 54.0 °F 87% 29.87 in 10.0 mi West 6.9 mph - N/A   Overcast
10:23 AM 57.9 °F 53.1 °F 84% 29.88 in 10.0 mi NW 9.2 mph - N/A   Overcast
10:53 AM 57.9 °F 51.1 °F 78% 29.88 in 10.0 mi NW 9.2 mph - N/A   Overcast
11:05 AM 61.0 °F 52.0 °F 72% 29.88 in 10.0 mi WNW 10.4 mph - N/A   Scattered Clouds
11:53 AM 61.0 °F 50.0 °F 67% 29.87 in 10.0 mi NW 10.4 mph 19.6 mph N/A   Overcast
12:53 PM 63.0 °F 48.9 °F 60% 29.87 in 10.0 mi WNW 11.5 mph - N/A   Overcast
1:53 PM 64.9 °F 50.0 °F 58% 29.86 in 10.0 mi WNW 13.8 mph 23.0 mph N/A   Mostly Cloudy
2:53 PM 63.0 °F 48.9 °F 60% 29.87 in 10.0 mi NW 10.4 mph - N/A   Overcast
3:53 PM 63.0 °F 51.1 °F 65% 29.86 in 10.0 mi WNW 9.2 mph - N/A   Overcast
4:53 PM 63.0 °F 51.1 °F 65% 29.87 in 10.0 mi NW 8.1 mph - N/A   Overcast
5:53 PM 64.0 °F 52.0 °F 65% 29.87 in 10.0 mi NW 10.4 mph - N/A   Scattered Clouds
6:53 PM 61.0 °F 52.0 °F 72% 29.89 in 10.0 mi NW 5.8 mph - N/A   Partly Cloudy
7:53 PM 59.0 °F 52.0 °F 78% 29.90 in 10.0 mi West 4.6 mph - N/A   Mostly Cloudy
8:53 PM 57.9 °F 52.0 °F 81% 29.92 in 10.0 mi WNW 4.6 mph - N/A   Clear
9:53 PM 57.9 °F 52.0 °F 81% 29.92 in 10.0 mi West 8.1 mph - N/A   Partly Cloudy
10:53 PM 55.9 °F 51.1 °F 84% 29.93 in 10.0 mi West 6.9 mph - N/A   Clear
11:53 PM 57.0 °F 53.1 °F 87% 29.94 in 6.0 mi NNW 6.9 mph - 0.00 in Rain Light Rain